Location: Freistadt
(48.5112°N, 14.5013°E)
Time: 21:54:15
(UTC+02:00)

M-CUBED/EXP-1 PRIME - Pass Details

Date: 02 April 2023
Orbit: 405 x 573 km, 101.7° (Epoch: 31 May)

Event Time Altitude Azimuth Distance (km) Brightness Sun altitude
Rises 02:21:48 0° 14° (NNE) 2,837 ? -34.2°
Reaches altitude 10° 02:24:03 10° 9° (N) 1,922 ? -34.1°
Enters shadow 02:25:18 19° 3° (N) 1,438 ? -34.0°
